Wetterdaten: Woche 11.11.24 - 17.11.24 (KW46)
Datum Zeit Temp. I. Temp. A. Feuchte I. Feuchte A. Luftdruck Regen Wind Richtung Sonnenschein Solar Taupunkt Windchill Windböen
11.11.2024 00:00 21,2 °C 3,9 °C 60 % 96 % 1029,7 hPa 0,0 l/m² 0,0 km/h (0 Bft) N 0,00 h 0 W/m² 3,3 °C 3,9 °C 0,0 km/h (0 Bft)
11.11.2024 01:00 21,2 °C 4,1 °C 60 % 96 % 1029,3 hPa 0,0 l/m² 0,0 km/h (0 Bft) N 0,00 h 0 W/m² 3,6 °C 4,1 °C 0,0 km/h (0 Bft)
11.11.2024 02:00 21,2 °C 4,4 °C 60 % 97 % 1029,0 hPa 0,0 l/m² 0,3 km/h (0 Bft) N 0,00 h 0 W/m² 3,9 °C 4,4 °C 1,0 km/h (0 Bft)
11.11.2024 03:00 21,1 °C 4,7 °C 60 % 97 % 1028,8 hPa 0,0 l/m² 0,0 km/h (0 Bft) N 0,00 h 0 W/m² 4,3 °C 4,7 °C 0,0 km/h (0 Bft)
11.11.2024 04:00 21,1 °C 4,8 °C 60 % 97 % 1028,5 hPa 0,0 l/m² 0,0 km/h (0 Bft) N 0,00 h 0 W/m² 4,4 °C 4,8 °C 0,0 km/h (0 Bft)
11.11.2024 05:00 21,2 °C 5,0 °C 60 % 97 % 1028,5 hPa 0,0 l/m² 0,5 km/h (0 Bft) N 0,00 h 0 W/m² 4,6 °C 5,0 °C 0,7 km/h (0 Bft)
11.11.2024 06:00 21,2 °C 5,2 °C 60 % 97 % 1028,4 hPa 0,2 l/m² 0,0 km/h (0 Bft) N 0,00 h 0 W/m² 4,7 °C 5,2 °C 0,0 km/h (0 Bft)
11.11.2024 07:00 21,1 °C 5,3 °C 59 % 97 % 1028,5 hPa 0,0 l/m² 0,5 km/h (0 Bft) N 0,00 h 7 W/m² 4,9 °C 5,3 °C 0,7 km/h (0 Bft)
11.11.2024 08:00 21,2 °C 5,6 °C 59 % 97 % 1028,4 hPa 0,0 l/m² 0,1 km/h (0 Bft) N 0,07 h 24 W/m² 5,2 °C 5,6 °C 0,4 km/h (0 Bft)
11.11.2024 09:00 21,2 °C 6,2 °C 58 % 97 % 1028,0 hPa 0,0 l/m² 0,6 km/h (0 Bft) N 1,00 h 100 W/m² 5,7 °C 6,2 °C 1,4 km/h (1 Bft)
11.11.2024 10:00 21,4 °C 7,6 °C 58 % 96 % 1027,6 hPa 0,0 l/m² 4,0 km/h (1 Bft) S 1,00 h 171 W/m² 7,0 °C 7,6 °C 6,2 km/h (2 Bft)
11.11.2024 11:00 21,3 °C 8,6 °C 58 % 93 % 1027,1 hPa 0,0 l/m² 5,9 km/h (2 Bft) S-SW 1,00 h 121 W/m² 7,6 °C 8,4 °C 7,8 km/h (2 Bft)
11.11.2024 12:00 21,2 °C 8,8 °C 58 % 91 % 1026,7 hPa 0,0 l/m² 3,8 km/h (1 Bft) S-SW 1,00 h 77 W/m² 7,5 °C 8,6 °C 5,6 km/h (2 Bft)
11.11.2024 13:00 21,2 °C 8,8 °C 58 % 91 % 1026,2 hPa 0,0 l/m² 4,1 km/h (1 Bft) S-SW 0,42 h 51 W/m² 7,3 °C 8,8 °C 5,9 km/h (2 Bft)
11.11.2024 14:00 21,2 °C 8,8 °C 58 % 90 % 1025,8 hPa 0,0 l/m² 2,9 km/h (1 Bft) S-SW 0,08 h 40 W/m² 7,3 °C 8,8 °C 4,5 km/h (1 Bft)
11.11.2024 15:00 21,2 °C 8,8 °C 58 % 90 % 1025,5 hPa 0,0 l/m² 0,0 km/h (0 Bft) S-SW 0,00 h 11 W/m² 7,2 °C 8,8 °C 0,1 km/h (0 Bft)
11.11.2024 16:00 21,1 °C 8,5 °C 57 % 90 % 1025,4 hPa 0,0 l/m² 2,5 km/h (1 Bft) S-SW 0,00 h 0 W/m² 7,0 °C 8,5 °C 4,0 km/h (1 Bft)
11.11.2024 17:00 21,0 °C 8,0 °C 57 % 91 % 1025,6 hPa 0,0 l/m² 1,4 km/h (1 Bft) SW 0,00 h 0 W/m² 6,5 °C 8,0 °C 2,5 km/h (1 Bft)
11.11.2024 18:00 21,1 °C 7,6 °C 58 % 91 % 1025,7 hPa 0,2 l/m² 0,0 km/h (0 Bft) SW 0,00 h 0 W/m² 6,2 °C 7,6 °C 0,0 km/h (0 Bft)
11.11.2024 19:00 21,1 °C 7,2 °C 59 % 91 % 1025,9 hPa 0,0 l/m² 0,0 km/h (0 Bft) SW 0,00 h 0 W/m² 5,9 °C 7,2 °C 0,0 km/h (0 Bft)
11.11.2024 20:00 21,3 °C 6,8 °C 59 % 92 % 1026,0 hPa 0,0 l/m² 0,0 km/h (0 Bft) SW 0,00 h 0 W/m² 5,7 °C 6,8 °C 0,0 km/h (0 Bft)
11.11.2024 21:00 21,4 °C 6,6 °C 58 % 93 % 1026,3 hPa 0,0 l/m² 0,0 km/h (0 Bft) SW 0,00 h 0 W/m² 5,6 °C 6,6 °C 0,1 km/h (0 Bft)
11.11.2024 22:00 21,2 °C 6,5 °C 58 % 94 % 1026,5 hPa 0,2 l/m² 0,7 km/h (0 Bft) SW 0,00 h 0 W/m² 5,6 °C 6,5 °C 1,2 km/h (1 Bft)
11.11.2024 23:00 21,1 °C 6,5 °C 59 % 94 % 1026,7 hPa 0,0 l/m² 0,0 km/h (0 Bft) SW 0,00 h 0 W/m² 5,6 °C 6,5 °C 0,0 km/h (0 Bft)
12.11.2024 00:00 21,2 °C 6,7 °C 59 % 95 % 1027,0 hPa 0,0 l/m² 1,8 km/h (1 Bft) SW 0,00 h 0 W/m² 5,8 °C 6,6 °C 3,7 km/h (1 Bft)
12.11.2024 01:00 21,2 °C 7,0 °C 59 % 95 % 1027,4 hPa 0,0 l/m² 3,9 km/h (1 Bft) NO 0,00 h 0 W/m² 6,3 °C 7,0 °C 7,7 km/h (2 Bft)
12.11.2024 02:00 21,1 °C 6,8 °C 59 % 95 % 1027,8 hPa 0,0 l/m² 5,1 km/h (1 Bft) NO 0,00 h 0 W/m² 6,0 °C 6,5 °C 9,8 km/h (2 Bft)
12.11.2024 03:00 21,2 °C 6,5 °C 59 % 95 % 1028,1 hPa 0,0 l/m² 6,8 km/h (2 Bft) NO 0,00 h 0 W/m² 5,8 °C 5,8 °C 12,6 km/h (3 Bft)
12.11.2024 04:00 21,2 °C 6,3 °C 59 % 95 % 1028,5 hPa 0,2 l/m² 7,5 km/h (2 Bft) O-NO 0,00 h 0 W/m² 5,6 °C 5,2 °C 13,8 km/h (3 Bft)
12.11.2024 05:00 21,2 °C 6,3 °C 59 % 95 % 1029,1 hPa 0,4 l/m² 5,1 km/h (1 Bft) O-NO 0,00 h 0 W/m² 5,5 °C 6,0 °C 9,4 km/h (2 Bft)
12.11.2024 06:00 21,2 °C 6,2 °C 59 % 95 % 1029,8 hPa 0,0 l/m² 2,4 km/h (1 Bft) NO 0,00 h 0 W/m² 5,5 °C 6,2 °C 5,5 km/h (2 Bft)
12.11.2024 07:00 21,2 °C 6,0 °C 58 % 95 % 1030,5 hPa 0,2 l/m² 4,1 km/h (1 Bft) NO 0,00 h 5 W/m² 5,3 °C 5,9 °C 9,3 km/h (2 Bft)
12.11.2024 08:00 21,2 °C 5,8 °C 58 % 95 % 1031,2 hPa 0,0 l/m² 4,8 km/h (1 Bft) O-NO 0,00 h 12 W/m² 5,1 °C 5,6 °C 9,6 km/h (2 Bft)
12.11.2024 09:00 21,2 °C 5,7 °C 58 % 95 % 1031,7 hPa 0,0 l/m² 5,6 km/h (2 Bft) NO 0,03 h 40 W/m² 5,0 °C 5,5 °C 11,3 km/h (2 Bft)
12.11.2024 10:00 21,2 °C 5,9 °C 58 % 95 % 1032,2 hPa 0,0 l/m² 3,8 km/h (1 Bft) O-NO 0,35 h 51 W/m² 5,1 °C 5,9 °C 7,8 km/h (2 Bft)
12.11.2024 11:00 21,2 °C 6,0 °C 58 % 95 % 1032,4 hPa 0,0 l/m² 3,1 km/h (1 Bft) N-NO 0,67 h 59 W/m² 5,3 °C 6,0 °C 6,9 km/h (2 Bft)
12.11.2024 12:00 21,2 °C 6,2 °C 58 % 94 % 1032,4 hPa 0,0 l/m² 3,2 km/h (1 Bft) O-NO 1,02 h 67 W/m² 5,3 °C 6,2 °C 6,8 km/h (2 Bft)
12.11.2024 13:00 21,2 °C 6,4 °C 57 % 93 % 1032,2 hPa 0,0 l/m² 3,6 km/h (1 Bft) O-NO 0,88 h 70 W/m² 5,4 °C 6,3 °C 6,9 km/h (2 Bft)
12.11.2024 14:00 21,3 °C 6,7 °C 57 % 90 % 1032,1 hPa 0,0 l/m² 3,6 km/h (1 Bft) O 0,93 h 104 W/m² 5,2 °C 6,7 °C 5,9 km/h (2 Bft)
12.11.2024 15:00 21,3 °C 6,7 °C 57 % 89 % 1032,1 hPa 0,0 l/m² 1,5 km/h (1 Bft) O 0,17 h 38 W/m² 5,0 °C 6,7 °C 3,1 km/h (1 Bft)
12.11.2024 16:00 21,3 °C 6,5 °C 57 % 89 % 1032,2 hPa 0,0 l/m² 0,0 km/h (0 Bft) O 0,00 h 9 W/m² 4,8 °C 6,5 °C 0,2 km/h (0 Bft)
12.11.2024 17:00 21,2 °C 6,3 °C 56 % 90 % 1032,2 hPa 0,0 l/m² 1,3 km/h (1 Bft) O 0,00 h 0 W/m² 4,9 °C 6,3 °C 3,6 km/h (1 Bft)
12.11.2024 18:00 21,3 °C 6,0 °C 57 % 90 % 1032,4 hPa 0,0 l/m² 3,9 km/h (1 Bft) N-NO 0,00 h 0 W/m² 4,6 °C 5,9 °C 8,3 km/h (2 Bft)
12.11.2024 19:00 21,2 °C 5,4 °C 58 % 88 % 1032,4 hPa 0,0 l/m² 6,2 km/h (2 Bft) N-NO 0,00 h 0 W/m² 3,5 °C 4,8 °C 12,0 km/h (2 Bft)
12.11.2024 20:00 21,5 °C 4,6 °C 58 % 89 % 1032,5 hPa 0,0 l/m² 5,1 km/h (1 Bft) N-NO 0,00 h 0 W/m² 2,9 °C 4,4 °C 9,1 km/h (2 Bft)
12.11.2024 21:00 21,6 °C 4,2 °C 58 % 91 % 1032,5 hPa 0,0 l/m² 5,4 km/h (1 Bft) NO 0,00 h 0 W/m² 2,9 °C 4,0 °C 9,2 km/h (2 Bft)
12.11.2024 22:00 21,4 °C 4,2 °C 58 % 92 % 1032,6 hPa 0,0 l/m² 3,6 km/h (1 Bft) NO 0,00 h 0 W/m² 3,0 °C 4,2 °C 6,6 km/h (2 Bft)
12.11.2024 23:00 21,3 °C 4,1 °C 58 % 92 % 1032,2 hPa 0,0 l/m² 1,8 km/h (1 Bft) NW 0,00 h 0 W/m² 2,9 °C 4,1 °C 3,4 km/h (1 Bft)
13.11.2024 00:00 21,3 °C 3,8 °C 58 % 92 % 1032,1 hPa 0,0 l/m² 0,9 km/h (0 Bft) NW 0,00 h 0 W/m² 2,7 °C 3,8 °C 2,0 km/h (1 Bft)
13.11.2024 01:00 21,3 °C 3,9 °C 58 % 92 % 1031,8 hPa 0,0 l/m² 0,5 km/h (0 Bft) W-NW 0,00 h 0 W/m² 2,8 °C 3,9 °C 1,4 km/h (1 Bft)
13.11.2024 02:00 21,2 °C 3,9 °C 58 % 93 % 1031,6 hPa 0,0 l/m² 0,0 km/h (0 Bft) W-NW 0,00 h 0 W/m² 2,9 °C 3,9 °C 0,1 km/h (0 Bft)
13.11.2024 03:00 21,2 °C 4,0 °C 57 % 93 % 1031,2 hPa 0,0 l/m² 0,5 km/h (0 Bft) W-NW 0,00 h 0 W/m² 3,0 °C 4,0 °C 1,1 km/h (0 Bft)
13.11.2024 04:00 21,2 °C 4,1 °C 57 % 93 % 1030,7 hPa 0,0 l/m² 3,0 km/h (1 Bft) SW 0,00 h 0 W/m² 3,1 °C 4,1 °C 4,7 km/h (1 Bft)
13.11.2024 05:00 21,3 °C 4,3 °C 58 % 94 % 1030,4 hPa 0,0 l/m² 2,2 km/h (1 Bft) S-SW 0,00 h 0 W/m² 3,4 °C 4,3 °C 3,8 km/h (1 Bft)
13.11.2024 06:00 21,2 °C 4,4 °C 58 % 94 % 1030,1 hPa 0,0 l/m² 0,9 km/h (0 Bft) S-SW 0,00 h 0 W/m² 3,6 °C 4,4 °C 1,8 km/h (1 Bft)
13.11.2024 07:00 21,2 °C 4,7 °C 56 % 94 % 1030,0 hPa 0,0 l/m² 0,5 km/h (0 Bft) S-SW 0,00 h 5 W/m² 3,9 °C 4,7 °C 0,9 km/h (0 Bft)
13.11.2024 08:00 21,2 °C 5,2 °C 57 % 94 % 1030,1 hPa 0,0 l/m² 3,3 km/h (1 Bft) S-SW 0,08 h 27 W/m² 4,3 °C 5,1 °C 5,4 km/h (1 Bft)
13.11.2024 09:00 21,2 °C 7,0 °C 57 % 93 % 1030,0 hPa 0,0 l/m² 7,5 km/h (2 Bft) W 0,77 h 98 W/m² 6,0 °C 5,8 °C 12,6 km/h (3 Bft)
13.11.2024 10:00 21,2 °C 7,4 °C 57 % 91 % 1030,2 hPa 0,0 l/m² 8,1 km/h (2 Bft) NW 0,72 h 60 W/m² 6,0 °C 5,9 °C 13,7 km/h (3 Bft)
13.11.2024 11:00 21,2 °C 7,7 °C 57 % 90 % 1029,9 hPa 0,0 l/m² 9,0 km/h (2 Bft) NW 0,97 h 81 W/m² 6,2 °C 5,6 °C 15,0 km/h (3 Bft)
13.11.2024 12:00 21,3 °C 7,9 °C 57 % 89 % 1029,6 hPa 0,0 l/m² 7,4 km/h (2 Bft) NW 0,33 h 52 W/m² 6,2 °C 6,7 °C 12,7 km/h (3 Bft)
13.11.2024 13:00 21,2 °C 7,9 °C 57 % 89 % 1029,1 hPa 0,0 l/m² 6,0 km/h (2 Bft) N-NW 0,60 h 50 W/m² 6,2 °C 7,7 °C 9,5 km/h (2 Bft)
13.11.2024 14:00 21,2 °C 8,3 °C 57 % 87 % 1028,7 hPa 0,0 l/m² 6,4 km/h (2 Bft) N-NW 0,52 h 65 W/m² 6,3 °C 7,6 °C 10,2 km/h (2 Bft)
13.11.2024 15:00 21,3 °C 8,1 °C 57 % 88 % 1028,5 hPa 0,0 l/m² 4,7 km/h (1 Bft) NW 0,10 h 24 W/m² 6,2 °C 8,0 °C 8,0 km/h (2 Bft)
13.11.2024 16:00 21,2 °C 7,6 °C 57 % 88 % 1028,6 hPa 0,0 l/m² 3,1 km/h (1 Bft) W-NW 0,00 h 6 W/m² 5,7 °C 7,5 °C 6,1 km/h (2 Bft)
13.11.2024 17:00 21,2 °C 6,7 °C 57 % 89 % 1028,8 hPa 0,0 l/m² 2,4 km/h (1 Bft) W-NW 0,00 h 0 W/m² 5,0 °C 6,7 °C 4,6 km/h (1 Bft)
13.11.2024 18:00 21,1 °C 5,1 °C 57 % 89 % 1028,8 hPa 0,0 l/m² 0,9 km/h (0 Bft) W 0,00 h 0 W/m² 3,4 °C 5,1 °C 1,4 km/h (1 Bft)
13.11.2024 19:00 21,1 °C 3,8 °C 58 % 89 % 1028,6 hPa 0,0 l/m² 0,2 km/h (0 Bft) W 0,00 h 0 W/m² 2,2 °C 3,8 °C 0,4 km/h (0 Bft)
13.11.2024 20:00 21,2 °C 2,4 °C 58 % 90 % 1028,4 hPa 0,0 l/m² 0,0 km/h (0 Bft) W 0,00 h 0 W/m² 0,9 °C 2,4 °C 0,0 km/h (0 Bft)
13.11.2024 21:00 21,1 °C 1,2 °C 56 % 90 % 1028,2 hPa 0,0 l/m² 0,5 km/h (0 Bft) W 0,00 h 0 W/m² -0,2 °C 1,2 °C 0,7 km/h (0 Bft)
13.11.2024 22:00 21,1 °C 0,6 °C 56 % 92 % 1028,0 hPa 0,0 l/m² 0,0 km/h (0 Bft) W 0,00 h 0 W/m² -0,6 °C 0,6 °C 0,2 km/h (0 Bft)
13.11.2024 23:00 21,1 °C 1,0 °C 56 % 93 % 1027,7 hPa 0,0 l/m² 0,4 km/h (0 Bft) W 0,00 h 0 W/m² -0,0 °C 1,0 °C 1,2 km/h (1 Bft)
14.11.2024 00:00 21,1 °C 1,4 °C 57 % 93 % 1027,2 hPa 0,0 l/m² 1,2 km/h (1 Bft) W 0,00 h 0 W/m² 0,4 °C 1,4 °C 2,8 km/h (1 Bft)
14.11.2024 01:00 21,1 °C 1,8 °C 57 % 94 % 1026,4 hPa 0,0 l/m² 2,4 km/h (1 Bft) S-SO 0,00 h 0 W/m² 0,9 °C 1,8 °C 4,3 km/h (1 Bft)
14.11.2024 02:00 21,0 °C 2,4 °C 57 % 94 % 1025,7 hPa 0,0 l/m² 1,2 km/h (1 Bft) SO 0,00 h 0 W/m² 1,5 °C 2,4 °C 2,3 km/h (1 Bft)
14.11.2024 03:00 20,9 °C 3,5 °C 57 % 95 % 1024,9 hPa 0,4 l/m² 2,9 km/h (1 Bft) S 0,00 h 0 W/m² 2,8 °C 3,5 °C 4,6 km/h (1 Bft)
14.11.2024 04:00 21,0 °C 5,1 °C 57 % 95 % 1024,3 hPa 0,0 l/m² 5,0 km/h (1 Bft) S-SW 0,00 h 0 W/m² 4,3 °C 5,0 °C 7,6 km/h (2 Bft)
14.11.2024 05:00 21,0 °C 5,7 °C 57 % 95 % 1024,0 hPa 0,0 l/m² 6,6 km/h (2 Bft) SW 0,00 h 0 W/m² 5,0 °C 5,1 °C 10,2 km/h (2 Bft)
14.11.2024 06:00 21,0 °C 6,0 °C 57 % 95 % 1023,6 hPa 0,2 l/m² 9,0 km/h (2 Bft) SW 0,00 h 0 W/m² 5,3 °C 4,0 °C 12,7 km/h (3 Bft)
14.11.2024 07:00 21,0 °C 6,2 °C 58 % 96 % 1023,4 hPa 0,4 l/m² 5,8 km/h (2 Bft) S-SW 0,00 h 6 W/m² 5,6 °C 6,0 °C 7,7 km/h (2 Bft)
14.11.2024 08:00 20,9 °C 6,6 °C 56 % 96 % 1023,5 hPa 0,2 l/m² 5,8 km/h (2 Bft) S-SW 0,00 h 17 W/m² 6,0 °C 6,0 °C 8,8 km/h (2 Bft)
14.11.2024 09:00 20,9 °C 7,2 °C 56 % 96 % 1023,1 hPa 0,0 l/m² 9,1 km/h (2 Bft) SW 0,63 h 57 W/m² 6,7 °C 5,3 °C 13,7 km/h (3 Bft)
14.11.2024 10:00 21,0 °C 7,8 °C 56 % 96 % 1023,4 hPa 0,0 l/m² 12,2 km/h (2 Bft) SW 0,40 h 43 W/m² 7,1 °C 3,9 °C 18,2 km/h (3 Bft)
14.11.2024 11:00 21,0 °C 8,2 °C 57 % 95 % 1023,5 hPa 0,0 l/m² 9,4 km/h (2 Bft) W-SW 0,30 h 48 W/m² 7,5 °C 6,1 °C 14,7 km/h (3 Bft)
14.11.2024 12:00 21,0 °C 8,8 °C 59 % 95 % 1023,3 hPa 0,0 l/m² 8,7 km/h (2 Bft) W 0,80 h 79 W/m² 8,0 °C 7,1 °C 14,3 km/h (3 Bft)
14.11.2024 13:00 20,9 °C 9,2 °C 59 % 90 % 1023,1 hPa 0,2 l/m² 13,6 km/h (3 Bft) W 0,25 h 46 W/m² 7,7 °C 5,1 °C 19,9 km/h (4 Bft)
14.11.2024 14:00 21,0 °C 9,2 °C 58 % 89 % 1023,0 hPa 0,0 l/m² 10,8 km/h (2 Bft) W 0,13 h 37 W/m² 7,5 °C 6,3 °C 15,4 km/h (3 Bft)
14.11.2024 15:00 21,0 °C 9,2 °C 59 % 89 % 1023,1 hPa 0,0 l/m² 8,7 km/h (2 Bft) W 0,00 h 15 W/m² 7,4 °C 7,4 °C 12,7 km/h (3 Bft)
14.11.2024 16:00 20,9 °C 8,8 °C 58 % 90 % 1023,5 hPa 0,0 l/m² 6,3 km/h (2 Bft) W 0,00 h 0 W/m² 7,2 °C 8,3 °C 10,4 km/h (2 Bft)
14.11.2024 17:00 21,0 °C 8,6 °C 59 % 90 % 1023,8 hPa 0,0 l/m² 5,6 km/h (2 Bft) W 0,00 h 0 W/m² 7,1 °C 8,1 °C 8,9 km/h (2 Bft)
14.11.2024 18:00 20,9 °C 8,4 °C 60 % 91 % 1024,2 hPa 0,0 l/m² 6,7 km/h (2 Bft) W-SW 0,00 h 0 W/m² 7,0 °C 7,6 °C 10,2 km/h (2 Bft)
14.11.2024 19:00 21,0 °C 8,2 °C 62 % 92 % 1024,5 hPa 0,2 l/m² 6,0 km/h (2 Bft) W 0,00 h 0 W/m² 7,1 °C 7,7 °C 9,8 km/h (2 Bft)
14.11.2024 20:00 21,2 °C 8,1 °C 61 % 93 % 1024,5 hPa 0,4 l/m² 4,3 km/h (1 Bft) W-SW 0,00 h 0 W/m² 7,1 °C 8,0 °C 7,0 km/h (2 Bft)
14.11.2024 21:00 21,1 °C 7,9 °C 59 % 93 % 1024,8 hPa 0,0 l/m² 4,0 km/h (1 Bft) W 0,00 h 0 W/m² 6,9 °C 7,8 °C 6,5 km/h (2 Bft)
14.11.2024 22:00 21,0 °C 8,0 °C 60 % 93 % 1025,0 hPa 0,0 l/m² 3,7 km/h (1 Bft) W 0,00 h 0 W/m² 6,9 °C 7,7 °C 6,9 km/h (2 Bft)
14.11.2024 23:00 21,0 °C 7,9 °C 60 % 93 % 1025,1 hPa 0,0 l/m² 1,7 km/h (1 Bft) W 0,00 h 0 W/m² 6,8 °C 7,9 °C 3,0 km/h (1 Bft)
15.11.2024 00:00 21,1 °C 7,7 °C 60 % 93 % 1025,2 hPa 0,0 l/m² 1,7 km/h (1 Bft) W-SW 0,00 h 0 W/m² 6,7 °C 7,7 °C 3,4 km/h (1 Bft)
15.11.2024 01:00 21,1 °C 7,8 °C 60 % 94 % 1025,2 hPa 0,0 l/m² 1,3 km/h (1 Bft) W 0,00 h 0 W/m² 6,9 °C 7,8 °C 3,1 km/h (1 Bft)
15.11.2024 02:00 21,1 °C 7,7 °C 59 % 94 % 1025,0 hPa 0,0 l/m² 3,7 km/h (1 Bft) W 0,00 h 0 W/m² 6,8 °C 7,7 °C 6,0 km/h (2 Bft)
15.11.2024 03:00 21,1 °C 7,6 °C 59 % 93 % 1025,0 hPa 0,0 l/m² 2,3 km/h (1 Bft) W 0,00 h 0 W/m² 6,6 °C 7,6 °C 4,3 km/h (1 Bft)
15.11.2024 04:00 21,1 °C 7,5 °C 59 % 93 % 1025,1 hPa 0,0 l/m² 1,6 km/h (1 Bft) W 0,00 h 0 W/m² 6,4 °C 7,5 °C 3,1 km/h (1 Bft)
15.11.2024 05:00 21,2 °C 7,0 °C 59 % 93 % 1025,0 hPa 0,0 l/m² 0,4 km/h (0 Bft) W 0,00 h 0 W/m² 5,9 °C 7,0 °C 0,9 km/h (0 Bft)
15.11.2024 06:00 21,1 °C 6,7 °C 59 % 93 % 1025,1 hPa 0,0 l/m² 0,6 km/h (0 Bft) W 0,00 h 0 W/m² 5,6 °C 6,7 °C 1,4 km/h (1 Bft)
15.11.2024 07:00 21,1 °C 6,6 °C 58 % 93 % 1025,4 hPa 0,0 l/m² 0,1 km/h (0 Bft) W 0,00 h 9 W/m² 5,6 °C 6,6 °C 0,4 km/h (0 Bft)
15.11.2024 08:00 21,1 °C 6,7 °C 58 % 94 % 1025,6 hPa 0,0 l/m² 0,2 km/h (0 Bft) W 0,00 h 30 W/m² 5,9 °C 6,7 °C 0,8 km/h (0 Bft)
15.11.2024 09:00 21,2 °C 7,5 °C 58 % 94 % 1025,8 hPa 0,0 l/m² 1,9 km/h (1 Bft) SW 0,58 h 58 W/m² 6,6 °C 7,5 °C 3,8 km/h (1 Bft)
15.11.2024 10:00 21,2 °C 8,9 °C 58 % 89 % 1025,9 hPa 0,0 l/m² 6,2 km/h (2 Bft) W-SW 0,98 h 117 W/m² 7,2 °C 8,5 °C 9,9 km/h (2 Bft)
15.11.2024 11:00 21,2 °C 9,9 °C 58 % 80 % 1025,7 hPa 0,0 l/m² 9,8 km/h (2 Bft) W-SW 1,00 h 133 W/m² 6,6 °C 7,7 °C 15,0 km/h (3 Bft)
15.11.2024 12:00 21,2 °C 10,2 °C 58 % 77 % 1025,6 hPa 0,0 l/m² 11,0 km/h (2 Bft) W-SW 1,02 h 115 W/m² 6,4 °C 7,3 °C 16,4 km/h (3 Bft)
15.11.2024 13:00 21,2 °C 10,0 °C 58 % 81 % 1025,5 hPa 0,0 l/m² 8,7 km/h (2 Bft) SW 1,00 h 75 W/m² 6,8 °C 8,4 °C 12,5 km/h (2 Bft)
15.11.2024 14:00 21,2 °C 9,8 °C 58 % 81 % 1025,2 hPa 0,0 l/m² 9,9 km/h (2 Bft) SW 0,45 h 53 W/m² 6,7 °C 7,4 °C 13,5 km/h (3 Bft)
15.11.2024 15:00 21,2 °C 9,5 °C 58 % 82 % 1025,1 hPa 0,0 l/m² 5,6 km/h (2 Bft) SW 0,00 h 12 W/m² 6,5 °C 9,2 °C 8,6 km/h (2 Bft)
15.11.2024 16:00 21,0 °C 9,2 °C 57 % 83 % 1025,0 hPa 0,0 l/m² 2,1 km/h (1 Bft) W-SW 0,00 h 5 W/m² 6,5 °C 9,2 °C 3,9 km/h (1 Bft)
15.11.2024 17:00 20,9 °C 8,8 °C 58 % 85 % 1025,0 hPa 0,0 l/m² 0,6 km/h (0 Bft) W-SW 0,00 h 0 W/m² 6,4 °C 8,8 °C 1,0 km/h (0 Bft)
15.11.2024 18:00 20,9 °C 8,4 °C 57 % 87 % 1025,0 hPa 0,0 l/m² 0,0 km/h (0 Bft) W-SW 0,00 h 0 W/m² 6,3 °C 8,4 °C 0,0 km/h (0 Bft)
15.11.2024 19:00 21,0 °C 8,0 °C 59 % 88 % 1025,1 hPa 0,0 l/m² 0,2 km/h (0 Bft) W-SW 0,00 h 0 W/m² 6,1 °C 8,0 °C 0,6 km/h (0 Bft)
15.11.2024 20:00 21,2 °C 7,8 °C 59 % 87 % 1025,2 hPa 0,0 l/m² 4,2 km/h (1 Bft) SW 0,00 h 0 W/m² 5,8 °C 7,7 °C 6,1 km/h (2 Bft)
15.11.2024 21:00 21,2 °C 7,8 °C 57 % 84 % 1025,0 hPa 0,0 l/m² 8,1 km/h (2 Bft) SW 0,00 h 0 W/m² 5,3 °C 6,4 °C 11,1 km/h (2 Bft)
15.11.2024 22:00 21,1 °C 7,8 °C 57 % 82 % 1024,6 hPa 0,0 l/m² 6,5 km/h (2 Bft) W-SW 0,00 h 0 W/m² 4,9 °C 7,0 °C 8,7 km/h (2 Bft)
15.11.2024 23:00 21,0 °C 7,2 °C 58 % 85 % 1024,2 hPa 0,0 l/m² 4,2 km/h (1 Bft) S-SW 0,00 h 0 W/m² 4,8 °C 7,2 °C 5,6 km/h (2 Bft)
16.11.2024 00:00 21,1 °C 6,6 °C 58 % 86 % 1023,4 hPa 0,0 l/m² 4,1 km/h (1 Bft) SW 0,00 h 0 W/m² 4,5 °C 6,6 °C 5,4 km/h (1 Bft)
16.11.2024 01:00 21,1 °C 6,1 °C 58 % 87 % 1022,9 hPa 0,0 l/m² 3,9 km/h (1 Bft) SW 0,00 h 0 W/m² 4,1 °C 6,1 °C 5,1 km/h (1 Bft)
16.11.2024 02:00 21,0 °C 5,7 °C 59 % 88 % 1022,7 hPa 0,0 l/m² 3,4 km/h (1 Bft) SW 0,00 h 0 W/m² 3,9 °C 5,7 °C 4,8 km/h (1 Bft)
16.11.2024 03:00 21,1 °C 5,9 °C 59 % 88 % 1022,2 hPa 0,0 l/m² 6,2 km/h (2 Bft) SW 0,00 h 0 W/m² 4,0 °C 5,5 °C 8,2 km/h (2 Bft)
16.11.2024 04:00 21,1 °C 6,3 °C 59 % 86 % 1021,6 hPa 0,0 l/m² 6,5 km/h (2 Bft) SW 0,00 h 0 W/m² 4,1 °C 5,8 °C 8,8 km/h (2 Bft)
16.11.2024 05:00 21,1 °C 6,4 °C 59 % 85 % 1021,2 hPa 0,0 l/m² 6,3 km/h (2 Bft) S-SW 0,00 h 0 W/m² 4,0 °C 5,9 °C 8,2 km/h (2 Bft)
16.11.2024 06:00 21,0 °C 6,4 °C 59 % 84 % 1020,9 hPa 0,0 l/m² 7,0 km/h (2 Bft) S-SW 0,00 h 0 W/m² 3,9 °C 5,8 °C 9,0 km/h (2 Bft)
16.11.2024 07:00 20,9 °C 6,4 °C 58 % 84 % 1020,9 hPa 0,0 l/m² 6,8 km/h (2 Bft) SW 0,00 h 5 W/m² 3,9 °C 5,8 °C 8,8 km/h (2 Bft)
16.11.2024 08:00 21,1 °C 6,5 °C 59 % 84 % 1020,7 hPa 0,0 l/m² 6,6 km/h (2 Bft) SW 0,00 h 12 W/m² 4,0 °C 6,0 °C 8,4 km/h (2 Bft)
16.11.2024 09:00 21,2 °C 6,7 °C 59 % 84 % 1020,4 hPa 0,0 l/m² 8,4 km/h (2 Bft) SW 0,00 h 27 W/m² 4,2 °C 5,2 °C 10,8 km/h (2 Bft)
16.11.2024 10:00 21,1 °C 7,0 °C 58 % 83 % 1020,1 hPa 0,0 l/m² 8,7 km/h (2 Bft) SW 0,00 h 35 W/m² 4,3 °C 5,2 °C 12,2 km/h (2 Bft)
16.11.2024 11:00 21,1 °C 7,2 °C 58 % 82 % 1019,6 hPa 0,0 l/m² 10,7 km/h (2 Bft) SW 0,00 h 39 W/m² 4,3 °C 4,1 °C 14,8 km/h (3 Bft)
16.11.2024 12:00 21,0 °C 7,2 °C 57 % 81 % 1018,8 hPa 0,0 l/m² 12,5 km/h (2 Bft) SW 0,03 h 45 W/m² 4,1 °C 3,1 °C 17,1 km/h (3 Bft)
16.11.2024 13:00 21,1 °C 7,2 °C 58 % 79 % 1018,1 hPa 0,0 l/m² 13,1 km/h (3 Bft) SW 0,03 h 41 W/m² 3,9 °C 2,8 °C 17,5 km/h (3 Bft)
16.11.2024 14:00 21,2 °C 7,1 °C 58 % 78 % 1017,3 hPa 0,0 l/m² 13,7 km/h (3 Bft) SW 0,00 h 27 W/m² 3,6 °C 2,4 °C 18,0 km/h (3 Bft)
16.11.2024 15:00 21,1 °C 6,9 °C 57 % 79 % 1016,8 hPa 0,0 l/m² 14,4 km/h (3 Bft) SW 0,00 h 13 W/m² 3,4 °C 1,7 °C 18,9 km/h (3 Bft)
16.11.2024 16:00 21,1 °C 6,8 °C 58 % 79 % 1016,5 hPa 0,0 l/m² 14,4 km/h (3 Bft) SW 0,00 h 7 W/m² 3,4 °C 1,7 °C 18,5 km/h (3 Bft)
16.11.2024 17:00 21,1 °C 6,6 °C 58 % 80 % 1016,1 hPa 0,0 l/m² 8,0 km/h (2 Bft) S-SW 0,00 h 0 W/m² 3,4 °C 5,2 °C 10,2 km/h (2 Bft)
16.11.2024 18:00 21,1 °C 6,4 °C 58 % 81 % 1015,6 hPa 0,0 l/m² 11,2 km/h (2 Bft) S-SW 0,00 h 0 W/m² 3,4 °C 2,9 °C 14,2 km/h (3 Bft)
16.11.2024 19:00 21,2 °C 6,3 °C 58 % 81 % 1015,0 hPa 0,0 l/m² 14,8 km/h (3 Bft) S-SW 0,00 h 0 W/m² 3,3 °C 0,8 °C 18,3 km/h (3 Bft)
16.11.2024 20:00 21,3 °C 6,4 °C 57 % 80 % 1014,7 hPa 0,0 l/m² 19,1 km/h (3 Bft) S-SW 0,00 h 0 W/m² 3,2 °C -1,0 °C 24,0 km/h (4 Bft)
16.11.2024 21:00 21,3 °C 6,0 °C 57 % 80 % 1014,0 hPa 0,0 l/m² 19,1 km/h (3 Bft) S-SW 0,00 h 0 W/m² 2,9 °C -1,4 °C 24,5 km/h (4 Bft)
16.11.2024 22:00 21,3 °C 5,9 °C 57 % 81 % 1013,2 hPa 0,0 l/m² 19,6 km/h (3 Bft) S-SW 0,00 h 0 W/m² 2,8 °C -1,9 °C 25,1 km/h (4 Bft)
16.11.2024 23:00 21,2 °C 5,9 °C 57 % 81 % 1012,4 hPa 0,0 l/m² 19,4 km/h (3 Bft) S-SW 0,00 h 0 W/m² 2,9 °C -1,8 °C 25,2 km/h (4 Bft)
17.11.2024 00:00 21,1 °C 6,1 °C 58 % 80 % 1011,6 hPa 0,0 l/m² 18,3 km/h (3 Bft) S-SW 0,00 h 0 W/m² 2,9 °C -1,1 °C 24,5 km/h (4 Bft)
17.11.2024 01:00 21,1 °C 6,1 °C 58 % 80 % 1011,2 hPa 0,0 l/m² 15,0 km/h (3 Bft) S-SW 0,00 h 0 W/m² 3,0 °C 0,6 °C 20,6 km/h (4 Bft)
17.11.2024 02:00 21,1 °C 6,3 °C 58 % 80 % 1010,8 hPa 0,0 l/m² 22,4 km/h (4 Bft) SW 0,00 h 0 W/m² 3,0 °C -2,3 °C 30,5 km/h (5 Bft)
17.11.2024 03:00 21,0 °C 6,1 °C 58 % 82 % 1009,8 hPa 0,0 l/m² 23,7 km/h (4 Bft) S-SW 0,00 h 0 W/m² 3,2 °C -3,0 °C 32,8 km/h (5 Bft)
17.11.2024 04:00 20,9 °C 6,2 °C 58 % 83 % 1009,4 hPa 0,0 l/m² 23,1 km/h (4 Bft) SW 0,00 h 0 W/m² 3,5 °C -2,7 °C 31,5 km/h (5 Bft)
17.11.2024 05:00 21,0 °C 5,9 °C 57 % 85 % 1009,0 hPa 0,0 l/m² 20,2 km/h (4 Bft) SW 0,00 h 0 W/m² 3,6 °C -2,0 °C 28,5 km/h (5 Bft)
17.11.2024 06:00 21,0 °C 5,7 °C 57 % 88 % 1008,7 hPa 1,0 l/m² 18,8 km/h (3 Bft) SW 0,00 h 0 W/m² 3,8 °C -1,8 °C 26,2 km/h (4 Bft)
17.11.2024 07:00 20,9 °C 5,6 °C 57 % 90 % 1008,5 hPa 0,6 l/m² 18,1 km/h (3 Bft) S-SW 0,00 h 0 W/m² 4,1 °C -1,5 °C 24,7 km/h (4 Bft)
17.11.2024 08:00 20,9 °C 5,8 °C 58 % 90 % 1008,4 hPa 0,0 l/m² 19,3 km/h (3 Bft) S-SW 0,00 h 11 W/m² 4,3 °C -1,8 °C 26,1 km/h (4 Bft)
17.11.2024 09:00 21,1 °C 6,1 °C 59 % 90 % 1008,3 hPa 0,2 l/m² 22,3 km/h (4 Bft) SW 0,00 h 23 W/m² 4,5 °C -2,5 °C 30,1 km/h (5 Bft)
17.11.2024 10:00 21,0 °C 6,4 °C 55 % 89 % 1008,1 hPa 0,0 l/m² 22,9 km/h (4 Bft) SW 0,73 h 59 W/m² 4,8 °C -2,3 °C 30,9 km/h (5 Bft)
17.11.2024 11:00 20,8 °C 6,7 °C 55 % 88 % 1007,9 hPa 0,0 l/m² 22,9 km/h (4 Bft) SW 0,78 h 60 W/m² 4,9 °C -1,9 °C 31,0 km/h (5 Bft)
17.11.2024 12:00 20,9 °C 6,8 °C 58 % 88 % 1007,3 hPa 0,0 l/m² 23,6 km/h (4 Bft) SW 1,00 h 89 W/m² 5,0 °C -1,9 °C 31,8 km/h (5 Bft)
17.11.2024 13:00 21,0 °C 7,0 °C 58 % 88 % 1007,1 hPa 0,0 l/m² 25,3 km/h (4 Bft) SW 0,85 h 75 W/m² 5,1 °C -2,2 °C 34,2 km/h (5 Bft)
17.11.2024 14:00 21,0 °C 7,1 °C 58 % 88 % 1007,0 hPa 0,0 l/m² 17,4 km/h (3 Bft) SW 0,00 h 30 W/m² 5,2 °C 0,7 °C 23,3 km/h (4 Bft)
17.11.2024 15:00 21,0 °C 5,8 °C 58 % 88 % 1007,3 hPa 2,2 l/m² 13,2 km/h (3 Bft) SW 0,00 h 7 W/m² 3,9 °C 1,2 °C 18,1 km/h (3 Bft)
17.11.2024 16:00 21,2 °C 5,3 °C 59 % 90 % 1007,0 hPa 0,0 l/m² 12,0 km/h (2 Bft) SW 0,00 h 5 W/m² 3,8 °C 1,2 °C 15,4 km/h (3 Bft)
17.11.2024 17:00 21,2 °C 4,7 °C 59 % 89 % 1007,3 hPa 0,0 l/m² 13,9 km/h (3 Bft) SW 0,00 h 0 W/m² 3,0 °C -0,7 °C 19,0 km/h (3 Bft)
17.11.2024 18:00 21,1 °C 4,4 °C 59 % 88 % 1007,7 hPa 0,0 l/m² 12,1 km/h (2 Bft) SW 0,00 h 0 W/m² 2,6 °C 0,1 °C 16,5 km/h (3 Bft)
17.11.2024 19:00 21,1 °C 4,2 °C 59 % 89 % 1008,1 hPa 0,0 l/m² 10,6 km/h (2 Bft) SW 0,00 h 0 W/m² 2,5 °C 0,9 °C 14,2 km/h (3 Bft)
17.11.2024 20:00 20,8 °C 3,8 °C 55 % 89 % 1008,2 hPa 0,0 l/m² 6,5 km/h (2 Bft) S-SW 0,00 h 0 W/m² 2,0 °C 3,2 °C 8,8 km/h (2 Bft)
17.11.2024 21:00 20,9 °C 4,1 °C 57 % 89 % 1008,4 hPa 0,0 l/m² 10,5 km/h (2 Bft) SW 0,00 h 0 W/m² 2,5 °C 0,9 °C 14,4 km/h (3 Bft)
17.11.2024 22:00 20,9 °C 4,7 °C 57 % 88 % 1008,5 hPa 0,0 l/m² 14,9 km/h (3 Bft) SW 0,00 h 0 W/m² 3,0 °C -1,1 °C 19,6 km/h (3 Bft)
17.11.2024 23:00 20,9 °C 4,8 °C 57 % 88 % 1008,4 hPa 0,0 l/m² 12,1 km/h (2 Bft) SW 0,00 h 0 W/m² 3,0 °C 0,6 °C 17,1 km/h (3 Bft)
Min-Datum _ 17.11.24 13.11.24 17.11.24 15.11.24 17.11.24 - 15.11.24 - - - 13.11.24 17.11.24 15.11.24
_ Min-Zeit 20:05 22:41 19:56 12:18 16:14 - 20:09 - - - 22:41 03:56 20:09
Minimum _ 20,7 °C 0,4 °C 50 % 76 % 1006,8 hPa - 0,0 km/h (0 Bft) - - - -0,7 °C -4,7 °C 0,0 km/h (0 Bft)
Max-Datum _ 12.11.24 15.11.24 14.11.24 11.11.24 12.11.24 17.11.24 17.11.24 - 17.11.24 11.11.24 14.11.24 15.11.24 17.11.24
_ Max-Zeit 21:28 12:22 20:00 10:00 22:07 15:06 13:40 - 12:33 10:00 12:52 13:01 13:37
Maximum _ 21,7 °C 10,3 °C 62 % 97 % 1032,7 hPa 2,2 l/m² 35,2 km/h
SW (5 Bft)
- 0,05 h 237 W/m² 8,2 °C 10,2 °C 43,5 km/h
SW (6 Bft)
Durchschnitt _ 21,1 °C 6,4 °C 58 % 90 % 1023,5 hPa #7,4 l/m² 6,6 km/h (2 Bft) SW #23:41 h 18 W/m² 4,8 °C 4,7 °C 9,6 km/h (2 Bft)
© 2009 Mathias Hoßbach